This is the latest recevied weather packets stored in our database for station/object IZ5MMH-1. If no packets are shown the sender has not sent any weather packets the latest 10 day(s).
| Time | Temp. | Humidity | Pressure | Rain* | Wind** | Luminosity | Snow |
|---|---|---|---|---|---|---|---|
| 1787407693 | 31.11° C | 36% | 1015.1 hPa | - | - | - | - |
| 1787407094 | 31.67° C | 36% | 1015.2 hPa | - | - | - | - |
| 1787406493 | 31.67° C | 39% | 1015.1 hPa | - | - | - | - |
| 1787405893 | 31.67° C | 40% | 1015.2 hPa | - | - | - | - |
| 1787405293 | 31.67° C | 38% | 1015.2 hPa | - | - | - | - |
| 1787404693 | 31.67° C | 38% | 1015.2 hPa | - | - | - | - |
| 1787404093 | 31.67° C | 39% | 1015.4 hPa | - | - | - | - |
| 1787403493 | 32.22° C | 38% | 1015.2 hPa | - | - | - | - |
| 1787402892 | 32.22° C | 37% | 1015.3 hPa | - | - | - | - |
| 1787402292 | 32.22° C | 39% | 1015.4 hPa | - | - | - | - |
| 1787401692 | 32.22° C | 39% | 1015.3 hPa | - | - | - | - |
| 1787401092 | 32.22° C | 37% | 1015.2 hPa | - | - | - | - |
| 1787400493 | 32.78° C | 37% | 1015.2 hPa | - | - | - | - |
| 1787399892 | 32.78° C | 37% | 1015.2 hPa | - | - | - | - |
| 1787399293 | 32.78° C | 37% | 1015.3 hPa | - | - | - | - |
| 1787398692 | 32.78° C | 37% | 1015.3 hPa | - | - | - | - |
| 1787398093 | 33.33° C | 36% | 1015.3 hPa | - | - | - | - |
| 1787397493 | 33.89° C | 37% | 1015.1 hPa | - | - | - | - |
| 1787396892 | 33.89° C | 36% | 1015.2 hPa | - | - | - | - |
| 1787396292 | 33.89° C | 37% | 1015.2 hPa | - | - | - | - |
| 1787395693 | 34.44° C | 35% | 1015 hPa | - | - | - | - |
| 1787395092 | 34.44° C | 33% | 1014.9 hPa | - | - | - | - |
| 1787394492 | 34.44° C | 32% | 1014.8 hPa | - | - | - | - |
| 1787393892 | 35° C | 32% | 1014.9 hPa | - | - | - | - |
| 1787393292 | 35° C | 28% | 1014.9 hPa | - | - | - | - |
* Rain since midnight (hover to see other rain measurements)
** Current wind speed in m/s (hover to see current wind gust speed)